Total_Precipitation_Accumulation
0.00 0.00 0.00 0.00 0.00 0.01 0.17 0.41 1.20 1.86 2.16 3.32 3.07 2.32 1.37 1.15 0.90 1.22 0.81 0.16 0.06 0.09 0.06 0.02 0.07 0.10 0.03 0.02 0.03 0.10 0.24 0.27 0.22 0.10 0.11 0.16 0.13 0.09 0.14 0.33 0.33 0.41 0.61 0.53
0.00 0.00 0.00 0.00 0.00 0.02 0.03 0.37 0.92 1.22 1.44 2.30 3.64 2.77 1.70 1.29 0.77 0.71 1.12 0.45 0.19 0.16 0.15 0.03 0.02 0.03 0.03 0.01 0.01 0.15 0.28 0.26 0.17 0.05 0.06 0.14 0.26 0.17 0.45 0.47 0.47 0.45 0.31 0.36
0.00 0.00 0.00 0.00 0.00 0.00 0.06 0.27 0.62 0.89 0.63 1.23 2.90 3.97 3.20 1.98 1.36 1.16 0.67 0.49 0.22 0.10 0.17 0.19 0.10 0.03 0.03 0.01 0.00 0.01 0.12 0.21 0.21 0.10 0.10 0.39 0.79 0.87 0.77 0.63 0.33 0.18 0.18 0.18
0.00 0.00 0.00 0.00 0.00 0.00 0.11 0.20 0.62 1.36 0.79 0.77 0.55 2.50 3.86 2.34 1.90 1.67 0.72 0.42 0.22 0.14 0.26 0.35 0.20 0.06 0.01 0.02 0.03 0.01 0.09 0.20 0.16 0.25 0.16 0.31 0.33 0.45 0.34 0.27 0.20 0.18 0.20 0.21
0.00 0.00 0.00 0.00 0.00 0.01 0.03 0.17 0.56 0.67 0.62 0.25 0.16 0.73 1.74 2.07 1.75 1.57 0.84 0.33 0.20 0.21 0.17 0.12 0.10 0.09 0.12 0.08 0.33 0.24 0.13 0.26 0.23 0.33 0.51 0.37 0.17 0.23 0.36 0.29 0.33 0.41 0.43 0.39
0.00 0.00 0.00 0.00 0.00 0.01 0.02 0.08 0.32 0.59 0.44 0.33 0.09 0.26 0.98 1.41 0.91 1.19 0.85 0.36 0.18 0.21 0.15 0.13 0.23 0.15 0.21 0.47 0.80 0.29 0.15 0.16 0.27 0.31 0.39 0.52 0.53 0.64 0.48 0.55 0.37 0.21 0.14 0.19
0.00 0.00 0.00 0.00 0.00 0.00 0.01 0.05 0.34 0.41 0.31 0.39 0.16 0.25 0.46 0.72 0.54 0.59 1.09 0.55 0.41 0.27 0.25 0.17 0.21 0.10 0.08 0.16 0.46 0.19 0.13 0.10 0.08 0.08 0.17 0.26 0.55 0.80 0.86 0.64 0.27 0.27 0.23 0.13
0.00 0.00 0.00 0.00 0.00 0.00 0.00 0.01 0.13 0.29 0.34 0.45 0.33 0.67 0.32 0.21 0.25 0.41 0.56 0.69 1.16 0.80 0.46 0.31 0.33 0.20 0.07 0.03 0.11 0.09 0.15 0.06 0.02 0.03 0.11 0.29 0.50 0.42 0.31 0.29 0.38 0.20 0.17 0.18
0.00 0.00 0.00 0.00 0.00 0.00 0.00 0.01 0.04 0.09 0.17 0.36 0.36 0.62 0.30 0.14 0.12 0.11 0.41 0.78 1.02 0.93 0.58 0.38 0.50 0.46 0.15 0.05 0.07 0.21 0.52 0.24 0.08 0.01 0.09 0.21 0.22 0.17 0.33 0.46 0.57 0.31 0.21 0.29
0.00 0.00 0.00 0.00 0.00 0.01 0.00 0.01 0.03 0.04 0.20 0.22 0.50 0.98 0.96 0.27 0.50 0.24 0.23 0.36 0.41 0.76 0.94 0.72 0.67 0.64 0.57 0.32 0.22 0.27 0.37 0.36 0.13 0.04 0.06 0.06 0.05 0.06 0.32 0.50 0.55 0.42 0.64 0.93
0.01 0.00 0.01 0.00 0.02 0.03 0.01 0.00 0.01 0.01 0.08 0.28 0.51 0.87 0.90 0.45 0.70 0.58 0.44 0.27 0.24 0.25 0.73 1.41 1.95 2.33 1.85 1.54 1.19 0.75 0.78 0.72 0.51 0.20 0.15 0.16 0.10 0.07 0.21 0.33 0.38 0.54 0.72 0.76
0.02 0.01 0.01 0.01 0.03 0.09 0.12 0.07 0.06 0.02 0.16 0.21 0.29 0.69 0.75 0.45 0.55 0.65 1.39 0.81 0.65 0.35 0.35 0.95 1.52 2.83 4.33 2.80 2.82 3.16 1.65 1.21 0.88 0.44 0.35 0.15 0.17 0.18 0.20 0.13 0.24 0.48 0.65 0.73
0.09 0.06 0.02 0.05 0.07 0.03 0.00 0.02 0.17 0.14 0.14 0.07 0.12 0.22 0.32 0.39 0.66 0.84 1.48 1.44 0.75 0.80 0.58 0.54 0.84 1.23 2.40 2.20 1.92 3.81 3.94 2.80 2.15 1.27 0.83 0.70 0.76 0.32 0.20 0.17 0.24 0.33 0.43 0.54
0.19 0.06 0.01 0.03 0.09 0.08 0.02 0.02 0.00 0.05 0.09 0.03 0.04 0.13 0.37 0.39 0.50 0.28 0.38 1.12 0.90 0.65 0.89 0.70 1.06 1.81 2.41 2.84 2.90 3.54 3.03 3.03 3.72 2.61 2.20 1.73 1.52 0.94 0.62 0.44 0.30 0.31 0.36 0.39
0.11 0.02 0.00 0.00 0.00 0.00 0.03 0.03 0.02 0.01 0.01 0.06 0.36 0.14 0.66 0.36 0.17 0.09 0.20 0.31 0.51 0.76 0.90 0.95 1.08 1.25 2.45 3.51 3.00 3.87 3.97 3.25 2.69 3.07 4.03 3.96 3.21 2.56 2.21 2.09 1.62 0.95 0.88 0.69
0.11 0.04 0.00 0.00 0.00 0.00 0.01 0.01 0.01 0.04 0.12 0.07 0.26 0.50 0.31 0.43 0.35 0.33 0.40 0.69 0.78 0.94 0.87 1.00 1.43 1.49 1.59 1.92 2.06 2.91 4.35 4.90 3.46 2.55 2.40 3.19 3.99 4.34 3.54 3.31 2.67 2.81 2.23 1.54
0.17 0.16 0.15 0.05 0.01 0.01 0.06 0.01 0.01 0.01 0.03 0.03 0.13 0.63 0.60 0.61 0.65 0.73 0.53 0.89 1.52 1.46 1.29 1.05 1.09 1.48 1.37 1.31 1.19 1.23 1.84 2.99 3.74 3.97 3.17 2.87 3.12 4.25 4.22 3.05 3.15 3.36 2.92 2.70
0.14 0.22 0.23 0.15 0.13 0.18 0.07 0.05 0.02 0.02 0.05 0.17 0.35 0.29 0.46 0.49 0.19 0.18 0.19 0.25 0.69 0.98 1.43 1.40 1.21 1.27 1.19 1.49 1.69 1.27 1.21 1.34 1.89 2.72 3.42 3.59 2.99 3.54 3.95 3.06 2.39 2.12 2.46 2.84
0.07 0.22 0.25 0.17 0.32 0.25 0.11 0.08 0.04 0.05 0.16 0.20 0.22 0.34 0.82 0.67 0.42 0.21 0.19 0.18 0.22 0.46 0.48 0.86 1.33 1.33 1.68 1.60 1.84 2.05 1.90 1.38 1.58 1.72 2.21 3.27 4.27 4.25 4.22 4.45 3.69 3.04 2.54 2.04
0.14 0.27 0.37 0.25 0.62 0.79 0.60 0.21 0.03 0.03 0.26 0.39 0.29 0.34 0.97 0.63 0.68 0.39 0.14 0.10 0.12 0.19 0.24 0.25 0.35 0.74 1.15 1.89 2.05 2.26 2.60 2.07 1.55 1.55 1.70 1.69 1.94 2.68 3.23 3.80 3.92 3.64 3.91 3.59
0.53 0.52 0.44 0.38 0.70 0.71 0.43 0.20 0.04 0.19 0.29 0.20 0.22 0.47 0.65 0.50 0.47 0.55 0.25 0.17 0.05 0.04 0.06 0.08 0.09 0.22 0.53 0.80 1.20 1.67 1.56 1.70 2.25 2.27 2.19 1.93 1.83 1.95 2.01 2.23 2.36 2.73 2.58 2.43
0.79 0.94 0.69 0.55 0.74 0.90 0.50 0.44 0.33 0.25 0.09 0.14 0.22 0.44 0.71 0.59 0.61 0.44 0.30 0.14 0.07 0.04 0.06 0.04 0.06 0.18 0.25 0.45 0.75 0.99 1.22 1.21 1.88 2.48 2.98 3.25 3.27 3.09 2.50 2.28 2.72 2.72 2.35 2.27
0.60 0.58 0.62 0.72 0.86 0.86 0.54 0.43 0.16 0.06 0.10 0.14 0.16 0.32 0.60 0.61 0.47 0.43 0.34 0.14 0.09 0.06 0.04 0.04 0.08 0.11 0.23 0.28 0.33 0.48 0.69 0.97 1.03 1.38 1.93 2.12 2.65 2.88 2.63 2.76 2.93 2.66 2.29 1.93
0.74 0.57 0.67 0.67 0.61 0.68 0.63 0.46 0.38 0.17 0.17 0.16 0.16 0.22 0.37 0.37 0.36 0.28 0.30 0.26 0.14 0.09 0.07 0.08 0.07 0.08 0.09 0.17 0.26 0.29 0.35 0.45 0.45 0.56 0.73 0.73 0.73 0.88 0.92 0.92 1.01 1.16 1.19 1.13
1.68 1.32 0.99 0.88 0.97 1.06 1.04 0.69 0.51 0.52 0.44 0.29 0.32 0.29 0.29 0.30 0.34 0.36 0.31 0.32 0.30 0.20 0.14 0.10 0.06 0.04 0.04 0.10 0.26 0.31 0.42 0.60 0.51 0.65 0.47 0.48 0.57 0.71 0.99 1.21 1.05 0.81 0.73 0.83
2.34 2.11 1.91 1.65 1.50 1.64 1.24 0.98 0.60 0.53 0.55 0.53 0.46 0.57 0.57 0.50 0.44 0.41 0.44 0.41 0.39 0.44 0.36 0.47 0.46 0.45 0.43 0.40 0.41 0.46 0.53 0.68 0.63 0.63 0.63 0.66 0.60 0.63 0.77 0.84 1.05 1.40 1.65 1.67